This demonstration page uses our WeatherBlox Daily Observations layout. Learn more.

Left ArrowRight Arrow

Hourly Observations for October 9, 2019

Temp ( °F °C ) Dew Point ( °F °C ) Humidity (%) Winds ( mph kmh ) Pressure ( in mb ) Visibility ( mi km ) Precip ( " mm )
12:53 am 00:53 Mostly Cloudy 70 21.1 64 17.8 82 82 ENE 8 13 30.04 1017 10 16 0.00 0.00
1:06 am 01:06 Cloudy 71 21.7 64 17.8 79 79 ENE 12 19 30.04 1017 10 16 0.00 0.00
1:53 am 01:53 Cloudy 69 20.6 63 17.2 81 81 ENE 9 15 30.05 1018 10 16 0.00 0.00
2:20 am 02:20 Cloudy 69 20.6 62 16.7 78 78 NE 10 17 30.06 1018 10 16 0.00 0.00
2:53 am 02:53 Cloudy 67 19.4 61 16.1 81 81 ENE 14 22 30.06 1018 10 16 0.00 0.00
3:53 am 03:53 Cloudy 67 19.4 60 15.6 79 79 ENE 10 17 30.05 1018 10 16 0.00 0.00
4:01 am 04:01 Cloudy 67 19.4 60 15.6 79 79 ENE 10 17 30.06 1018 10 16 0.00 0.00
4:53 am 04:53 Cloudy 67 19.4 59 15 76 76 E 6 9 30.05 1018 10 16 0.00 0.00
5:53 am 05:53 Cloudy 67 19.4 59 15 76 76 E 9 15 30.07 1018 10 16 0.00 0.00
6:53 am 06:53 Cloudy 66 18.9 59 15 78 78 ENE 7 11 30.09 1019 10 16 0.00 0.00
7:53 am 07:53 Cloudy 66 18.9 59 15 78 78 ENE 10 17 30.11 1020 10 16 0.00 0.00
8:04 am 08:04 Cloudy 66 18.9 59 15 78 78 ENE 9 15 30.11 1020 10 16 0.00 0.00
8:53 am 08:53 Cloudy 66 18.9 59 15 78 78 E 9 15 30.12 1020 10 16 0.00 0.00
9:13 am 09:13 Cloudy 66 18.9 59 15 78 78 ENE 13 20 30.13 1020 10 16 0.00 0.00
9:53 am 09:53 Cloudy 66 18.9 59 15 78 78 E 9 15 30.14 1021 10 16 0.00 0.00
10:53 am 10:53 Cloudy 67 19.4 59 15 76 76 E 7 11 30.15 1021 10 16 0.00 0.00
11:51 am 11:51 Cloudy 66 19 59 15 78 78 ENE 9 15 30.16 1021 10 16 0.00 0.00
11:53 am 11:53 Cloudy 67 19.4 59 15 76 76 ENE 8 13 30.16 1021 10 16 0.00 0.00
12:53 pm 12:53 Cloudy 69 20.6 59 15 70 70 E 9 15 30.14 1021 10 16 0.00 0.00
1:53 pm 13:53 Cloudy 73 22.8 60 15.6 64 64 NE 8 13 30.11 1020 10 16 0.00 0.00
2:13 pm 14:13 Mostly Cloudy 72 22.2 59 15 64 64 Calm 30.10 1019 10 16 0.00 0.00
2:23 pm 14:23 Mostly Cloudy 73 22.8 59 15 62 62 ENE 7 11 30.10 1019 10 16 0.00 0.00
2:43 pm 14:43 Mostly Cloudy 73 22.8 59 15 62 62 ENE 6 9 30.09 1019 10 16 0.00 0.00
2:53 pm 14:53 Partly Cloudy 75 23.9 59 15 58 58 VRB 5 7 30.09 1019 10 16 0.00 0.00
3:53 pm 15:53 Mostly Cloudy 75 23.9 59 15 58 58 E 8 13 30.08 1019 10 16 0.00 0.00
4:53 pm 16:53 Partly Cloudy 76 24.4 59 15 56 56 NE 7 11 30.06 1018 10 16 0.00 0.00
5:53 pm 17:53 Mostly Sunny 75 23.9 60 15.6 60 60 E 9 15 30.06 1018 10 16 0.00 0.00
6:53 pm 18:53 Sunny 73 22.8 60 15.6 64 64 NE 6 9 30.06 1018 10 16 0.00 0.00
7:53 pm 19:53 Clear 69 20.6 60 15.6 73 73 NE 7 11 30.07 1018 10 16 0.00 0.00
8:53 pm 20:53 Clear 69 20.6 60 15.6 73 73 ENE 3 6 30.09 1019 10 16 0.00 0.00
9:53 pm 21:53 Clear 65 18.3 59 15 81 81 NE 3 6 30.11 1020 10 16 0.00 0.00
10:53 pm 22:53 Mostly Cloudy 63 17.2 60 15.6 90 90 Calm 30.12 1020 10 16 0.00 0.00
11:53 pm 23:53 Clear 63 17.2 59 15 87 87 Calm 30.13 1020 10 16 0.00 0.00

Powered by AerisWeather